Previsão horária em Alliste

Hoje, 14 Junho, Segunda-feira

Tempo Temperatura Precipitação Vento Pressão Humidade
00:00 +23°C° 0 mm 5 m/s 759 mmHg 65%
01:00 +22°C° 0 mm 6 m/s 759 mmHg 67%
02:00 +22°C° 0 mm 7 m/s 759 mmHg 60%
03:00 +22°C° 0 mm 8 m/s 759 mmHg 53%
04:00 +22°C° 0 mm 9 m/s 759 mmHg 46%
05:00 +23°C° 0 mm 9 m/s 759 mmHg 43%
06:00 +23°C° 0 mm 9 m/s 759 mmHg 39%
07:00 +24°C° 0 mm 9 m/s 760 mmHg 37%
08:00 +26°C° 0 mm 9 m/s 760 mmHg 35%
09:00 +26°C° 0 mm 10 m/s 760 mmHg 32%
10:00 +27°C° 0 mm 10 m/s 760 mmHg 30%
11:00 +27°C° 0 mm 10 m/s 759 mmHg 31%
12:00 +27°C° 0 mm 10 m/s 759 mmHg 32%
13:00 +27°C° 0 mm 10 m/s 759 mmHg 34%
14:00 +27°C° 0 mm 10 m/s 759 mmHg 34%
15:00 +26°C° 0 mm 10 m/s 758 mmHg 34%
16:00 +26°C° 0 mm 10 m/s 758 mmHg 34%
17:00 +24°C° 0 mm 9 m/s 758 mmHg 36%
18:00 +23°C° 0 mm 9 m/s 758 mmHg 39%
19:00 +22°C° 0 mm 8 m/s 758 mmHg 42%
20:00 +22°C° 0 mm 8 m/s 758 mmHg 46%
21:00 +21°C° 0 mm 8 m/s 758 mmHg 50%
22:00 +21°C° 0 mm 8 m/s 759 mmHg 54%
23:00 +21°C° 0 mm 8 m/s 759 mmHg 56%

Amanhã, 15 Junho, Terça-feira

Tempo Temperatura Precipitação Vento Pressão Humidade
00:00 +21°C° 0 mm 8 m/s 758 mmHg 58%
01:00 +20°C° 0 mm 8 m/s 758 mmHg 60%
02:00 +20°C° 0 mm 8 m/s 758 mmHg 58%
03:00 +20°C° 0 mm 8 m/s 758 mmHg 56%
04:00 +18°C° 0 mm 8 m/s 758 mmHg 54%
05:00 +20°C° 0 mm 8 m/s 759 mmHg 51%
06:00 +21°C° 0 mm 9 m/s 759 mmHg 48%
07:00 +22°C° 0 mm 9 m/s 760 mmHg 45%
08:00 +23°C° 0 mm 9 m/s 760 mmHg 41%
09:00 +24°C° 0 mm 9 m/s 760 mmHg 38%
10:00 +26°C° 0 mm 9 m/s 760 mmHg 35%
11:00 +26°C° 0 mm 8 m/s 760 mmHg 34%
12:00 +26°C° 0 mm 8 m/s 760 mmHg 33%
13:00 +27°C° 0 mm 7 m/s 760 mmHg 31%
14:00 +27°C° 0 mm 7 m/s 760 mmHg 32%
15:00 +26°C° 0 mm 7 m/s 760 mmHg 33%
16:00 +26°C° 0 mm 7 m/s 759 mmHg 33%
17:00 +24°C° 0 mm 7 m/s 759 mmHg 39%
18:00 +23°C° 0 mm 6 m/s 759 mmHg 44%
19:00 +22°C° 0 mm 6 m/s 759 mmHg 49%
20:00 +21°C° 0 mm 6 m/s 760 mmHg 53%
21:00 +21°C° 0 mm 5 m/s 760 mmHg 57%
22:00 +20°C° 0 mm 5 m/s 760 mmHg 61%
23:00 +20°C° 0 mm 5 m/s 760 mmHg 64%

Depois de amanhã, 16 Junho, Quarta-feira

Tempo Temperatura Precipitação Vento Pressão Humidade
00:00 +19°C° 0 mm 4 m/s 760 mmHg 66%
01:00 +19°C° 0 mm 4 m/s 760 mmHg 69%
02:00 +19°C° 0 mm 4 m/s 760 mmHg 71%
03:00 +19°C° 0 mm 4 m/s 760 mmHg 73%
04:00 +18°C° 0 mm 4 m/s 760 mmHg 75%
05:00 +20°C° 0 mm 4 m/s 760 mmHg 67%
06:00 +21°C° 0 mm 4 m/s 760 mmHg 60%
07:00 +23°C° 0 mm 4 m/s 760 mmHg 53%
08:00 +25°C° 0 mm 3 m/s 760 mmHg 48%
09:00 +27°C° 0 mm 3 m/s 760 mmHg 43%
10:00 +28°C° 0 mm 3 m/s 760 mmHg 37%
11:00 +29°C° 0 mm 4 m/s 760 mmHg 36%
12:00 +29°C° 0 mm 4 m/s 760 mmHg 35%
13:00 +30°C° 0 mm 4 m/s 760 mmHg 34%
14:00 +29°C° 0 mm 4 m/s 760 mmHg 35%
15:00 +29°C° 0 mm 3 m/s 760 mmHg 37%
16:00 +28°C° 0 mm 3 m/s 760 mmHg 38%
17:00 +27°C° 0 mm 3 m/s 760 mmHg 44%
18:00 +26°C° 0 mm 3 m/s 760 mmHg 49%
19:00 +25°C° 0 mm 3 m/s 760 mmHg 54%
20:00 +24°C° 0 mm 3 m/s 760 mmHg 59%
21:00 +22°C° 0 mm 3 m/s 760 mmHg 64%
22:00 +21°C° 0 mm 3 m/s 760 mmHg 69%
23:00 +21°C° 0 mm 2 m/s 760 mmHg 71%

17 Junho, Quinta-feira

Tempo Temperatura Precipitação Vento Pressão Humidade
00:00 +21°C° 0 mm 2 m/s 760 mmHg 73%
01:00 +20°C° 0 mm 2 m/s 760 mmHg 75%
02:00 +20°C° 0 mm 2 m/s 760 mmHg 77%
03:00 +20°C° 0 mm 2 m/s 760 mmHg 80%
04:00 +20°C° 0 mm 2 m/s 760 mmHg 82%
05:00 +21°C° 0 mm 2 m/s 760 mmHg 73%
06:00 +24°C° 0 mm 2 m/s 760 mmHg 65%
07:00 +25°C° 0 mm 2 m/s 761 mmHg 56%
08:00 +27°C° 0 mm 2 m/s 761 mmHg 50%
09:00 +28°C° 0 mm 3 m/s 761 mmHg 44%
10:00 +30°C° 0 mm 3 m/s 761 mmHg 38%
11:00 +30°C° 0 mm 3 m/s 761 mmHg 39%
12:00 +30°C° 0 mm 4 m/s 761 mmHg 41%
13:00 +30°C° 0 mm 4 m/s 761 mmHg 42%
14:00 +30°C° 0 mm 4 m/s 761 mmHg 43%
15:00 +30°C° 0 mm 4 m/s 761 mmHg 45%
16:00 +29°C° 0 mm 4 m/s 761 mmHg 46%
17:00 +28°C° 0 mm 4 m/s 761 mmHg 53%
18:00 +27°C° 0 mm 4 m/s 761 mmHg 61%
19:00 +26°C° 0 mm 4 m/s 761 mmHg 68%
20:00 +25°C° 0 mm 4 m/s 761 mmHg 75%
21:00 +24°C° 0 mm 3 m/s 761 mmHg 81%
22:00 +22°C° 0 mm 3 m/s 761 mmHg 87%
23:00 +23°C° 0 mm 2 m/s 761 mmHg 88%

18 Junho, Sexta-feira

Tempo Temperatura Precipitação Vento Pressão Humidade
00:00 +23°C° 0 mm 2 m/s 761 mmHg 88%
01:00 +22°C° 0 mm 1 m/s 761 mmHg 88%
02:00 +22°C° 0 mm 1 m/s 761 mmHg 87%
03:00 +22°C° 0 mm 1 m/s 761 mmHg 86%
04:00 +21°C° 0 mm 1 m/s 761 mmHg 85%
05:00 +23°C° 0 mm 1 m/s 761 mmHg 76%
06:00 +24°C° 0 mm 1 m/s 761 mmHg 68%
07:00 +26°C° 0 mm 1 m/s 761 mmHg 59%
08:00 +27°C° 0 mm 1 m/s 761 mmHg 53%
09:00 +29°C° 0 mm 1 m/s 761 mmHg 47%
10:00 +31°C° 0 mm 2 m/s 761 mmHg 41%
11:00 +31°C° 0 mm 2 m/s 761 mmHg 40%
12:00 +32°C° 0 mm 2 m/s 761 mmHg 38%
13:00 +32°C° 0 mm 2 m/s 760 mmHg 36%
14:00 +32°C° 0 mm 2 m/s 760 mmHg 35%
15:00 +33°C° 0 mm 3 m/s 760 mmHg 35%
16:00 +33°C° 0 mm 3 m/s 760 mmHg 34%
17:00 +31°C° 0 mm 2 m/s 760 mmHg 40%
18:00 +29°C° 0 mm 2 m/s 760 mmHg 46%
19:00 +27°C° 0 mm 1 m/s 760 mmHg 51%
20:00 +27°C° 0 mm 2 m/s 760 mmHg 54%
21:00 +26°C° 0 mm 2 m/s 760 mmHg 57%
22:00 +25°C° 0 mm 2 m/s 760 mmHg 60%
23:00 +25°C° 0 mm 2 m/s 760 mmHg 61%

19 Junho, Sábado

Tempo Temperatura Precipitação Vento Pressão Humidade
00:00 +24°C° 0 mm 3 m/s 760 mmHg 62%
01:00 +24°C° 0 mm 3 m/s 760 mmHg 62%
02:00 +24°C° 0 mm 3 m/s 760 mmHg 64%
03:00 +22°C° 0 mm 3 m/s 760 mmHg 66%
04:00 +22°C° 0 mm 3 m/s 759 mmHg 67%
05:00 +25°C° 0 mm 3 m/s 759 mmHg 61%
06:00 +26°C° 0 mm 4 m/s 760 mmHg 56%
07:00 +28°C° 0 mm 4 m/s 760 mmHg 50%
08:00 +29°C° 0 mm 4 m/s 760 mmHg 45%
09:00 +32°C° 0 mm 4 m/s 759 mmHg 41%
10:00 +33°C° 0 mm 4 m/s 759 mmHg 36%
11:00 +34°C° 0 mm 4 m/s 759 mmHg 36%
12:00 +34°C° 0 mm 5 m/s 759 mmHg 36%
13:00 +34°C° 0 mm 5 m/s 758 mmHg 36%
14:00 +34°C° 0 mm 5 m/s 758 mmHg 37%
15:00 +34°C° 0 mm 4 m/s 758 mmHg 38%
16:00 +33°C° 0 mm 4 m/s 758 mmHg 38%
17:00 +32°C° 0 mm 4 m/s 758 mmHg 43%
18:00 +30°C° 0 mm 4 m/s 758 mmHg 47%
19:00 +28°C° 0 mm 4 m/s 758 mmHg 51%
20:00 +27°C° 0 mm 4 m/s 758 mmHg 57%
21:00 +26°C° 0 mm 4 m/s 759 mmHg 62%
22:00 +25°C° 0 mm 4 m/s 759 mmHg 67%
23:00 +25°C° 0 mm 4 m/s 759 mmHg 70%
Mostrar mais